TimeAKDT,TemperatureF,Dew PointF,Humidity,Sea Level PressureIn,VisibilityMPH,Wind Direction,Wind SpeedMPH,Gust SpeedMPH,PrecipitationIn,Events,Conditions,WindDirDegrees,DateUTC
12:53 AM,32.0,19.9,61,30.27,10.0,Calm,Calm,-,N/A,,Overcast,0,2014-04-12 08:53:00
1:53 AM,33.1,19.0,56,30.28,10.0,Calm,Calm,-,N/A,,Overcast,0,2014-04-12 09:53:00
2:53 AM,33.1,21.9,64,30.27,10.0,Calm,Calm,-,N/A,,Overcast,0,2014-04-12 10:53:00
3:53 AM,32.0,21.9,66,30.27,10.0,Calm,Calm,-,N/A,,Overcast,0,2014-04-12 11:53:00
4:53 AM,32.0,24.1,73,30.26,10.0,Calm,Calm,-,N/A,,Overcast,0,2014-04-12 12:53:00
5:53 AM,32.0,21.0,64,30.25,10.0,WNW,3.5,-,N/A,,Overcast,300,2014-04-12 13:53:00
6:53 AM,32.0,19.0,59,30.25,10.0,Calm,Calm,-,N/A,,Overcast,0,2014-04-12 14:53:00
7:53 AM,32.0,17.1,54,30.24,10.0,North,3.5,-,N/A,,Overcast,360,2014-04-12 15:53:00
8:53 AM,32.0,16.0,52,30.25,10.0,NE,3.5,-,N/A,,Overcast,40,2014-04-12 16:53:00
9:53 AM,33.1,17.1,52,30.24,10.0,NNE,3.5,-,N/A,,Overcast,30,2014-04-12 17:53:00
10:53 AM,34.0,17.1,50,30.24,10.0,North,3.5,-,N/A,,Overcast,360,2014-04-12 18:53:00
11:53 AM,34.0,15.1,46,30.24,10.0,North,4.6,-,N/A,,Overcast,360,2014-04-12 19:53:00
12:53 PM,35.1,14.0,42,30.25,10.0,North,5.8,-,N/A,,Overcast,10,2014-04-12 20:53:00
1:06 PM,35.6,14.0,41,30.23,10.0,North,3.5,-,N/A,,Overcast,10,2014-04-12 21:06:00
1:53 PM,35.1,19.9,54,30.23,6.0,North,8.1,-,0.00,Snow,Light Snow,10,2014-04-12 21:53:00
2:05 PM,35.6,21.2,56,30.21,4.0,North,9.2,-,0.00,Snow,Light Snow,350,2014-04-12 22:05:00
2:53 PM,37.0,21.0,52,30.20,10.0,North,9.2,-,0.00,,Overcast,360,2014-04-12 22:53:00
3:00 PM,37.4,19.4,48,30.20,10.0,North,10.4,-,N/A,,Overcast,10,2014-04-12 23:00:00
3:53 PM,37.0,25.0,62,30.19,10.0,North,4.6,-,N/A,,Overcast,10,2014-04-12 23:53:00
4:53 PM,37.0,26.1,65,30.18,10.0,NNW,6.9,-,N/A,,Overcast,330,2014-04-13 00:53:00
5:53 PM,37.9,26.1,62,30.16,10.0,North,6.9,-,N/A,,Overcast,360,2014-04-13 01:53:00
6:53 PM,37.9,25.0,60,30.16,10.0,North,4.6,-,N/A,,Overcast,10,2014-04-13 02:53:00
7:53 PM,37.0,26.1,65,30.14,10.0,Calm,Calm,-,N/A,,Overcast,0,2014-04-13 03:53:00
8:53 PM,36.0,27.0,70,30.14,10.0,North,4.6,-,N/A,,Overcast,360,2014-04-13 04:53:00
9:53 PM,36.0,27.0,70,30.14,10.0,NE,4.6,-,N/A,,Overcast,40,2014-04-13 05:53:00
10:53 PM,36.0,27.0,70,30.13,10.0,North,6.9,-,N/A,,Overcast,360,2014-04-13 06:53:00
11:53 PM,34.0,28.0,79,30.11,10.0,NNE,6.9,-,N/A,,Overcast,20,2014-04-13 07:53:00